This demonstration page uses our WeatherBlox Daily Observations layout. Learn more.

Left ArrowRight Arrow

Hourly Observations for May 29, 2015

Temp ( °F °C ) Dew Point ( °F °C ) Humidity (%) Winds ( mph kmh ) Pressure ( in mb ) Visibility ( mi km ) Precip ( " mm )
12:52 am 00:52 Cloudy 68 20 63 17.2 84 84 S 14 22 29.90 1013 10 16 0.00 0.00
1:52 am 01:52 Cloudy 67 19.4 63 17.2 87 87 SSE 14 22 29.90 1013 10 16 0.00 0.00
2:52 am 02:52 Cloudy 67 19.4 64 17.8 91 91 S 10 17 29.89 1012 10 16 0.00 0.00
3:52 am 03:52 Cloudy 66 18.9 63 17.2 90 90 SE 10 17 29.86 1011 10 16 0.00 0.00
4:52 am 04:52 Cloudy 66 18.9 63 17.2 90 90 S 13 20 29.85 1011 10 16 0.00 0.00
5:31 am 05:31 Cloudy 66 18.9 63 17.2 90 90 SSE 13 20 29.85 1011 10 16 0.00 0.00
5:52 am 05:52 Cloudy 66 18.9 63 17.2 90 90 S 14 22 29.86 1011 10 16 0.00 0.00
5:56 am 05:56 Cloudy 66 19 63 17 88 88 S 13 20 29.85 1011 10 16 0.00 0.00
6:52 am 06:52 Cloudy 66 18.9 63 17.2 90 90 SSE 10 17 29.88 1012 10 16 0.00 0.00
7:24 am 07:24 Cloudy 66 19 63 17 88 88 S 13 20 29.88 1012 10 16 0.00 0.00
7:52 am 07:52 Cloudy 67 19.4 64 17.8 91 91 S 13 20 29.89 1012 10 16 0.00 0.00
8:16 am 08:16 Cloudy 67 19.4 64 17.8 91 91 S 12 19 29.88 1012 10 16 0.00 0.00
8:52 am 08:52 Mostly Cloudy 68 20 64 17.8 87 87 S 5 7 29.91 1013 10 16 0.00 0.00
9:52 am 09:52 Cloudy 69 20.6 63 17.2 81 81 SSW 6 9 29.91 1013 10 16 0.00 0.00
10:52 am 10:52 Cloudy 72 22.2 63 17.2 73 73 SSW 9 15 29.90 1012 10 16 0.00 0.00
11:52 am 11:52 Cloudy 73 22.8 61 16.1 66 66 S 12 19 29.90 1012 10 16 0.00 0.00
12:52 pm 12:52 Cloudy 75 23.9 60 15.6 60 60 SSW 9 15 29.90 1012 10 16 0.00 0.00
1:52 pm 13:52 Cloudy 76 24.4 59 15 56 56 SW 8 13 29.89 1012 10 16 0.00 0.00
2:52 pm 14:52 Cloudy 76 24.4 59 15 56 56 SW 12 19 29.89 1012 10 16 0.00 0.00
3:52 pm 15:52 Cloudy 78 25.6 60 15.6 54 54 SSW 12 19 29.88 1012 10 16 0.00 0.00
4:52 pm 16:52 Cloudy 78 25.6 60 15.6 54 54 SSW 12 19 29.86 1011 10 16 0.00 0.00
5:52 pm 17:52 Cloudy 78 25.6 60 15.6 54 54 SSW 10 17 29.85 1011 10 16 0.00 0.00
6:52 pm 18:52 Cloudy 77 25 61 16.1 58 58 S 8 13 29.85 1011 10 16 0.00 0.00
7:07 pm 19:07 Cloudy with Thunderstorms 75 23.9 62 16.7 64 64 WSW 13 20 29.83 1010 10 16 0.00 0.03
7:39 pm 19:39 Windy with Storms Likely 68 20 64 17.8 87 87 N 21 33 29.88 1012 8 13 0.01 0.25
7:49 pm 19:49 Cloudy 68 20 64 18 88 88 NNW 16 26 29.88 1012 10 16 0.01 0.25
7:52 pm 19:52 Cloudy 68 20 64 17.8 87 87 NNW 15 24 29.90 1013 10 16 0.01 0.25
8:13 pm 20:13 Cloudy 67 19.4 62 16.7 84 84 NNW 17 28 29.91 1013 10 16 0.00 0.00
8:46 pm 20:46 Cloudy 63 17 59 15 88 88 NNW 24 39 29.94 1014 10 16 0.00 0.00
8:52 pm 20:52 Cloudy 63 17.2 59 15 87 87 N 26 43 29.95 1014 10 16 0.00 0.00
9:52 pm 21:52 Cloudy 59 15 55 12.8 87 87 NNW 25 41 30.00 1016 10 16 0.00 0.00
10:52 pm 22:52 Cloudy 57 13.9 53 11.7 87 87 NNW 17 28 30.03 1017 10 16 0.00 0.00
11:52 pm 23:52 Cloudy 55 12.8 51 10.6 87 87 NNW 20 31 30.05 1018 10 16 0.00 0.00

Powered by AerisWeather